Regional Weather Roundup
Issued by NWS

Home | Current Version | Previous Version | Graphics & Text | Print | Product List | Glossary On
Versions: 1 2 3 4 5 6 7 8 9 10 11 12 13 14 15 16 17 18 19 20 21 22 23 24 25 26 27 28 29 30 31 32 33 34 35 36 37 38 39 40 41 42 43 44 45 46 47 48 49 50
000
ASUS45 KABQ 040710
RWRNM
WEATHER ROUNDUP FOR NEW MEXICO
NATIONAL WEATHER SERVICE ALBUQUERQUE NM
100 AM MDT MON MAY 04 2015

NOTE: "FAIR" MEANS FEW OR NO CLOUDS BELOW 12,000 FEET AGL WITH NO
       SIGNIFICANT WEATHER OR OBSTRUCTIONS TO VISION.

      THIS PRODUCT IS RELEASED AS TWO VERSIONS.  ONE VERSION NEAR
      THE TOP OF THE HOUR CONTAINING PRELIMINARY DATA FROM ALBUQUERQUE
      AND OTHER STATIONS.  A FINAL VERSION WITH ADDITIONAL DATA IS
      ISSUED ABOUT 10 MINUTES AFTER THE HOUR.

NMZ501-503-504-510>518-040800-
NORTHWEST PLATEAU/NORTHCENTRAL MOUNTAINS

CITY           SKY/WX    TMP DP  RH WIND       PRES   REMARKS
FARMINGTON     CLOUDY    56  39  53 CALM      30.03R
LOS ALAMOS     PTCLDY    50  38  62 N8        30.13R
SANTA FE       MOCLDY    51  38  60 N13       30.06R
TAOS           PTCLDY    43  30  61 NE3       30.12F
ANGEL FIRE     PTSUNNY   36  35  96 CALM      30.20S

$$
NMZ402-403-502-505>509-040800-
WESTCENTRAL MOUNTAINS/SOUTHWEST MOUNTAINS

CITY           SKY/WX    TMP DP  RH WIND       PRES   REMARKS
GALLUP         CLOUDY    50  40  68 NE3       30.08S
GRANTS         CLOUDY    54  38  54 N6        30.09F
SILVER CITY      N/A     57  34  41 N6        30.01S

$$
NMZ407-409-411-412-040800-
SOUTHERN DESERTS

CITY           SKY/WX    TMP DP  RH WIND       PRES   REMARKS
LORDSBURG      FAIR      64  32  29 CALM      29.93R
DEMING         PTCLDY    63  40  42 CALM      29.94R
LAS CRUCES     MOCLDY    67  42  39 N3        29.96R
HOLLOMAN AFB   MOCLDY    73  40  30 S14       29.90R
ALAMOGORDO     MOCLDY    68  37  32 S7        29.91F
T OR C         PTCLDY    62  34  35 NW8       29.95R

$$
NMZ519>523-040800-
CENTRAL VALLEYS/CENTRAL HIGHLANDS

CITY           SKY/WX    TMP DP  RH WIND       PRES   REMARKS
ALBUQUERQUE    MOCLDY    61  37  41 SW8       30.02R
DOUBLE EAGLE   CLOUDY    56  39  53 W13       30.06R
MORIARTY ARPT  PTSUNNY   50  36  60 CALM      30.08R
CLINES CORNERS CLOUDY    56  35  45 E10       30.08S
BELEN          FAIR      58  37  44 NW9       30.01R
SOCORRO        FAIR      61  33  35 N6        29.98S

$$
NMZ524>526-539-540-040800-
SOUTHCENTRAL MOUNTAINS

CITY           SKY/WX    TMP DP  RH WIND       PRES   REMARKS
RUIDOSO        PTCLDY    50  28  43 SE8       30.09R

$$
NMZ527>531-040800-
NORTHEAST HIGHLANDS/NORTHEAST PLAINS

CITY           SKY/WX    TMP DP  RH WIND       PRES   REMARKS
LAS VEGAS      CLOUDY    47  39  74 E5        30.11R
RATON          CLOUDY    47  39  74 NE9       30.05F
CLAYTON        CLOUDY    58  48  69 S8G20     30.01S

$$
NMZ532>537-040800-
EASTCENTRAL PLAINS

CITY           SKY/WX    TMP DP  RH WIND       PRES   REMARKS
TUCUMCARI      LGT RAIN  61  48  62 S18       29.97F
CANNON AFB     LGT RAIN  58  52  82 N12       30.02F
CLOVIS AIRPORT CLOUDY    63  46  55 NW15      30.02S

$$
NMZ028-029-538-040800-
SOUTHEAST PLAINS

CITY           SKY/WX    TMP DP  RH WIND       PRES   REMARKS
ROSWELL        PTCLDY    57  45  64 S8        29.93R
ARTESIA        CLEAR     64  45  48 S9        29.92S
CARLSBAD       CLEAR     64  49  57 S10       29.91S
HOBBS          MOCLDY    59  57  94 E6        29.96S


$$


USA.gov is the U.S. government's official web portal to all federal, state and local government web resources and services.